[[{"header":{"parameterUnit":"m.s-1","parameterCategory":1,"la1":30.2991,"la2":30.254,"lo1":-89.0895,"lo2":-89.0444,"dy":0.0017,"dx":0.0017,"nx":28,"ny":28,"refTime":"2025-12-29T09:00:00:Z","depth":0,"parameterNumber":2,"parameterNumberName":"U-component_of_WINDS"},"data":[0,0,0,0,0,0,0,0,0,0,0,0,0,0,0,0,0,0,0,0,0,0,0,0,0,0,0,0,0,0,0,0,0,0,0,0,0,0,0,0,0,0,0,0,0,0,0,0,0,0,0,0,0,0,0,0,0,0,-0.3046,-0.3047,0,-0.3087,-0.3087,-0.3088,-0.3119,-0.312,-0.312,-0.312,-0.3161,-0.3162,-0.3163,0,0,0,0,0,0,0,0,0,0,0,0,0,-0.2995,-0.2996,-0.3046,-0.3047,-0.3047,-0.3087,-0.3087,-0.3088,-0.3119,-0.312,-0.312,-0.3121,-0.3161,-0.3162,-0.3163,0,0,0,0,0,0,0,0,0,0,0,0,0,-0.3025,-0.2996,-0.3046,-0.3068,-0.307,-0.3087,-0.3087,-0.3088,-0.3119,-0.312,-0.312,-0.3121,-0.3161,-0.3162,-0.3163,-0.3161,0,0,-0.3167,-0.3167,0,0,0,0,0,0,0,0,-0.3023,-0.3027,-0.3064,-0.3066,-0.3069,-0.3099,-0.3084,-0.3112,-0.3119,-0.3101,-0.312,-0.3121,-0.314,-0.3143,-0.3149,-0.3163,-0.3165,-0.3167,-0.3167,-0.3168,-0.3168,0,0,0,0,0,0,0,-0.3021,-0.3025,-0.3062,-0.3065,-0.3068,-0.3075,-0.308,-0.309,-0.3117,-0.3102,-0.3105,-0.3109,-0.3141,-0.3148,-0.3151,-0.3165,-0.3167,-0.3168,-0.3168,-0.3169,-0.3179,-0.3179,0,0,0,0,0,0,-0.3016,-0.3023,-0.3061,-0.3063,-0.3047,-0.3076,-0.3081,-0.3089,-0.3117,-0.3122,-0.3109,-0.311,-0.3146,-0.3149,-0.3152,-0.3151,-0.3168,-0.3169,-0.317,-0.3179,-0.3179,-0.3178,0,0,0,0,0,0,-0.3015,-0.3019,-0.3059,-0.3044,-0.305,-0.3076,-0.3084,-0.3089,-0.3096,-0.3122,-0.3127,-0.3111,-0.3146,-0.315,-0.3159,-0.3153,-0.317,-0.3171,-0.318,-0.3179,-0.3179,-0.315,0,0,0,0,0,0,-0.3013,-0.3018,-0.3018,-0.3044,-0.305,-0.3065,-0.3084,-0.309,-0.3098,-0.3101,-0.3125,-0.313,-0.3147,-0.3157,-0.316,-0.3155,-0.3172,-0.3181,-0.318,-0.3179,-0.3151,-0.3148,-0.3146,0,0,0,0,0,-0.3011,-0.3008,-0.3018,-0.3022,-0.3051,-0.3065,-0.3069,-0.3089,-0.3098,-0.3097,-0.3114,-0.3129,-0.3154,-0.3157,-0.3161,-0.3157,-0.3181,-0.318,-0.3179,-0.3153,-0.3149,-0.3146,0,0,0,0,0,0,-0.2981,-0.3012,-0.3023,-0.3028,-0.3044,-0.307,-0.307,-0.3084,-0.3097,-0.3099,-0.3124,-0.3129,-0.3134,-0.3147,-0.315,-0.3156,-0.3169,-0.3169,-0.3148,-0.3144,-0.3142,-0.3138,-0.3173,0,0,0,0,0,-0.2974,-0.2983,-0.301,-0.3012,-0.302,-0.3044,-0.305,-0.3065,-0.3082,-0.3088,-0.3106,-0.3121,-0.3133,-0.3139,-0.3151,-0.3154,-0.3159,-0.3153,-0.315,-0.3147,-0.3146,-0.3148,-0.3145,-0.3175,-0.3175,-0.3175,0,0,-0.2962,-0.298,-0.2984,-0.3007,-0.302,-0.3029,-0.3049,-0.3057,-0.3063,-0.309,-0.3098,-0.3111,-0.313,-0.3135,-0.3139,-0.3146,-0.3139,-0.3146,-0.3144,-0.3144,-0.3147,-0.3144,-0.3141,-0.3174,-0.3175,-0.3175,0,0,-0.2943,-0.2958,-0.2961,-0.2975,-0.2995,-0.3011,-0.3012,-0.3036,-0.3046,-0.3055,-0.3075,-0.3083,-0.3102,-0.3115,-0.3123,-0.311,-0.3124,-0.3113,-0.3097,-0.3099,-0.3096,-0.3094,-0.3089,-0.3087,-0.3112,-0.3112,-0.3112,0,-0.2925,-0.2938,-0.2961,-0.2968,-0.2977,-0.3002,-0.3005,-0.3016,-0.304,-0.3045,-0.3053,-0.3077,-0.3092,-0.31,-0.3097,-0.3104,-0.3105,-0.311,-0.3095,-0.3093,-0.3092,-0.3087,-0.3085,-0.3111,-0.3111,-0.3111,-0.3111,0,-0.2915,-0.2924,-0.2924,-0.2946,-0.2955,-0.296,-0.2983,-0.299,-0.3003,-0.3018,-0.3027,-0.3046,-0.3062,-0.3065,-0.3078,-0.3075,-0.3079,-0.3091,-0.3104,-0.3087,-0.3083,-0.3081,-0.3109,-0.3109,-0.311,-0.311,0,0,-0.2877,-0.2911,-0.2911,-0.2921,-0.2945,-0.2953,-0.2959,-0.2975,-0.298,-0.2995,-0.3,-0.3016,-0.3027,-0.3037,-0.3053,-0.3054,-0.3041,-0.3066,-0.3066,-0.306,-0.3038,-0.3028,-0.3025,-0.3051,-0.3051,-0.3051,-0.3036,0,-0.2861,-0.2873,-0.2894,-0.2899,-0.2908,-0.2931,-0.2937,-0.2952,-0.2967,-0.2976,-0.2992,-0.3002,-0.3017,-0.3023,-0.3025,-0.3042,-0.3037,-0.3044,-0.3055,-0.3056,-0.3049,-0.3023,-0.3012,-0.2997,-0.3034,-0.3034,-0.3034,0,-0.2845,-0.2858,-0.2864,-0.2888,-0.2892,-0.2897,-0.2913,-0.2922,-0.294,-0.295,-0.2961,-0.2978,-0.2986,-0.2998,-0.3009,-0.3013,-0.3019,-0.3028,-0.3028,-0.3029,-0.3043,-0.3022,-0.2993,-0.299,-0.3031,-0.3032,-0.3032,0,-0.2815,-0.2836,-0.2842,-0.285,-0.2878,-0.288,-0.2892,-0.2911,-0.2919,-0.2933,-0.2938,-0.2953,-0.296,-0.2972,-0.2992,-0.2999,-0.3,-0.3014,-0.3008,-0.3007,-0.3006,-0.3005,-0.2976,-0.3012,-0.3012,-0.3012,-0.3012,0,-0.2795,-0.2798,-0.2829,-0.2832,-0.2836,-0.286,-0.2863,-0.2877,-0.2893,-0.29,-0.2922,-0.2927,-0.2954,-0.2963,-0.2979,-0.2985,-0.2989,-0.2997,-0.3001,-0.2994,-0.2993,-0.2998,-0.2999,-0.3011,-0.3011,-0.3011,-0.3012,0,-0.2762,-0.2784,-0.2792,-0.2818,-0.2824,-0.2826,-0.2848,-0.2852,-0.2868,-0.2876,-0.288,-0.2904,-0.2916,-0.2938,-0.2956,-0.2966,-0.2968,-0.2976,-0.2962,-0.2964,-0.2956,-0.2956,-0.2928,-0.2925,-0.2963,-0.2963,-0.2963,0,-0.2747,-0.275,-0.2776,-0.2782,-0.2793,-0.2803,-0.2811,-0.2835,-0.2842,-0.2863,-0.2865,-0.2878,-0.289,-0.2908,-0.2927,-0.2941,-0.2948,-0.2938,-0.295,-0.2944,-0.2947,-0.2946,-0.2946,-0.2934,-0.2934,-0.2933,-0.2933,0,-0.2718,-0.2729,-0.274,-0.2755,-0.2764,-0.2777,-0.2791,-0.2794,-0.2821,-0.2829,-0.2841,-0.285,-0.2868,-0.2881,-0.2898,-0.291,-0.2925,-0.2929,-0.2928,-0.2921,-0.2912,-0.2916,-0.2953,-0.2929,-0.293,-0.293,-0.293,-0.293,-0.2694,-0.2697,-0.2715,-0.2727,-0.274,-0.2752,-0.2758,-0.2774,-0.2785,-0.2801,-0.2815,-0.2826,-0.2844,-0.2868,-0.2879,-0.2888,-0.2895,-0.2894,-0.2894,-0.2893,-0.289,-0.2912,-0.2891,-0.2891,-0.2891,-0.2892,-0.2892,0,-0.2665,-0.2678,-0.2689,-0.2707,-0.2716,-0.2731,-0.2747,-0.2754,-0.2763,-0.2778,-0.279,-0.2803,-0.2816,-0.2837,-0.2851,-0.2854,-0.2862,-0.2857,-0.2856,-0.2859,-0.2883,-0.2881,-0.2851,-0.2851,-0.2851,-0.2851,-0.2851,-0.2851,-0.2651,-0.2656,-0.2669,-0.2681,-0.2695,-0.2705,-0.2713,-0.2725,-0.2737,-0.2752,-0.2762,-0.2776,-0.2794,-0.2809,-0.2822,-0.2827,-0.2831,-0.2824,-0.2832,-0.2853,-0.2857,-0.2861,-0.286,-0.2825,-0.2825,-0.2807,-0.2807,-0.2807]},{"header":{"parameterUnit":"m.s-1","parameterCategory":1,"la1":30.2991,"la2":30.254,"lo1":-89.0895,"lo2":-89.0444,"dy":0.0017,"dx":0.0017,"nx":28,"ny":28,"refTime":"2025-12-29T09:00:00:Z","depth":0,"parameterNumber":3,"parameterNumberName":"V-component_of_WINDS"},"data":[0,0,0,0,0,0,0,0,0,0,0,0,0,0,0,0,0,0,0,0,0,0,0,0,0,0,0,0,0,0,0,0,0,0,0,0,0,0,0,0,0,0,0,0,0,0,0,0,0,0,0,0,0,0,0,0,0,0,3.6004,3.6006,0,3.6131,3.6133,3.6134,3.6158,3.6157,3.6156,3.6155,3.6282,3.6287,3.6291,0,0,0,0,0,0,0,0,0,0,0,0,0,3.5779,3.5783,3.6004,3.6006,3.6007,3.6131,3.6133,3.6135,3.6158,3.6157,3.6155,3.6154,3.6281,3.6286,3.6291,0,0,0,0,0,0,0,0,0,0,0,0,0,3.5889,3.5785,3.6004,3.6034,3.6038,3.6131,3.6133,3.6135,3.6158,3.6157,3.6155,3.6154,3.6279,3.6285,3.6292,3.6363,0,0,3.6312,3.6315,0,0,0,0,0,0,0,0,3.5882,3.5897,3.6028,3.6032,3.6037,3.6127,3.61,3.6211,3.6159,3.6112,3.6155,3.6153,3.6232,3.6242,3.6269,3.6369,3.6374,3.6312,3.6316,3.6319,3.6321,0,0,0,0,0,0,0,3.5875,3.5892,3.6054,3.603,3.6035,3.604,3.6054,3.6121,3.6179,3.6116,3.6118,3.6133,3.6234,3.6263,3.6272,3.6376,3.6312,3.6318,3.6322,3.6325,3.6541,3.6543,0,0,0,0,0,0,3.5862,3.5885,3.605,3.6058,3.5954,3.6046,3.6061,3.61,3.6178,3.6189,3.6134,3.6134,3.6252,3.6265,3.6277,3.6367,3.6319,3.6325,3.6329,3.654,3.6542,3.6544,0,0,0,0,0,0,3.5857,3.5877,3.6045,3.5972,3.5994,3.6051,3.6094,3.6103,3.6132,3.6192,3.6202,3.6154,3.6252,3.6268,3.6342,3.6371,3.6328,3.6334,3.6537,3.654,3.6543,3.6545,0,0,0,0,0,0,3.5851,3.5875,3.5903,3.5973,3.5998,3.6109,3.6096,3.6107,3.6144,3.6144,3.6213,3.6223,3.6252,3.6332,3.6348,3.6379,3.6339,3.6535,3.6539,3.6542,3.6543,3.6548,3.6552,0,0,0,0,0,3.5843,3.5898,3.5904,3.5924,3.6034,3.611,3.6125,3.6158,3.6146,3.6174,3.6213,3.6221,3.6365,3.6339,3.6358,3.6391,3.6533,3.6538,3.6542,3.6541,3.6547,3.6552,0,0,0,0,0,0,3.5829,3.5907,3.5916,3.5995,3.6046,3.6114,3.6151,3.6163,3.6217,3.6216,3.6253,3.6268,3.6341,3.6373,3.6343,3.6465,3.6448,3.6456,3.6441,3.6447,3.6452,3.6443,3.6345,0,0,0,0,0,3.5835,3.5891,3.5956,3.602,3.6045,3.6094,3.6128,3.6149,3.6203,3.6224,3.6268,3.632,3.6377,3.6414,3.6469,3.6547,3.6563,3.6579,3.6584,3.6587,3.6594,3.6639,3.6647,3.6557,3.6557,3.6557,0,0,3.5849,3.5899,3.5931,3.6019,3.6061,3.6117,3.6112,3.6172,3.6214,3.6233,3.6307,3.634,3.64,3.6477,3.6513,3.6506,3.6622,3.6592,3.6595,3.66,3.6644,3.6652,3.666,3.656,3.656,3.6559,0,0,3.5903,3.5946,3.6005,3.6047,3.6111,3.6143,3.6156,3.6223,3.6247,3.6321,3.6337,3.6387,3.6484,3.6527,3.6561,3.6631,3.6641,3.6648,3.6673,3.6716,3.6723,3.6729,3.6756,3.6764,3.6654,3.6654,3.6654,0,3.5912,3.5999,3.6033,3.6093,3.6131,3.6152,3.6211,3.625,3.6328,3.6354,3.6345,3.6469,3.651,3.6598,3.6615,3.6641,3.6658,3.6641,3.6719,3.6726,3.6732,3.6758,3.6768,3.6655,3.6655,3.6655,3.6655,0,3.6007,3.6067,3.6106,3.6183,3.6225,3.6284,3.6327,3.6366,3.6383,3.6415,3.6491,3.6541,3.6608,3.663,3.6646,3.672,3.6714,3.6711,3.6696,3.6741,3.6766,3.6776,3.6656,3.6656,3.6655,3.6655,0,0,3.6057,3.6152,3.6166,3.6202,3.6274,3.6321,3.638,3.6447,3.648,3.6532,3.6584,3.6666,3.6665,3.6703,3.6725,3.6762,3.6816,3.6756,3.6757,3.6766,3.6901,3.6904,3.6915,3.6822,3.6824,3.6825,3.6897,0,3.6121,3.6231,3.6263,3.6355,3.6411,3.6431,3.6483,3.6533,3.6564,3.6616,3.665,3.6709,3.6702,3.6725,3.6763,3.6801,3.6844,3.6796,3.6871,3.6873,3.6857,3.6927,3.693,3.6995,3.6906,3.6908,3.6909,0,3.6211,3.6268,3.6365,3.6431,3.6455,3.6502,3.6566,3.6615,3.6671,3.6691,3.6735,3.6753,3.6816,3.6796,3.6883,3.685,3.6882,3.6905,3.6909,3.6918,3.6895,3.694,3.7016,3.7027,3.6925,3.6923,3.6922,0,3.6241,3.634,3.6412,3.6441,3.6519,3.6551,3.6585,3.664,3.6678,3.6733,3.6758,3.6819,3.6853,3.6899,3.6934,3.6915,3.7018,3.7001,3.7038,3.7037,3.706,3.7058,3.7144,3.7077,3.7077,3.7077,3.7077,0,3.631,3.6369,3.6426,3.647,3.6537,3.6573,3.6638,3.6672,3.6721,3.6772,3.6792,3.6839,3.688,3.6933,3.6959,3.7029,3.7043,3.7061,3.7068,3.7061,3.7059,3.7084,3.7081,3.708,3.7079,3.7078,3.7078,0,3.6355,3.6395,3.6475,3.6542,3.656,3.6607,3.6664,3.6707,3.6739,3.6804,3.6821,3.6871,3.6934,3.6972,3.7051,3.7069,3.7146,3.715,3.7128,3.7131,3.7166,3.7163,3.7272,3.7289,3.7209,3.721,3.7211,0,3.6397,3.6444,3.6516,3.6552,3.6587,3.6644,3.6683,3.672,3.676,3.6828,3.6863,3.6927,3.6981,3.708,3.7123,3.7184,3.7191,3.7225,3.72,3.7192,3.7193,3.7191,3.7196,3.7229,3.723,3.7231,3.7231,0,3.6469,3.6487,3.6543,3.6607,3.6654,3.6705,3.6756,3.6784,3.6829,3.6873,3.6938,3.698,3.7061,3.7125,3.7189,3.7223,3.7235,3.7238,3.7251,3.7244,3.723,3.724,3.7141,3.7236,3.7236,3.7235,3.7235,3.7235,3.6516,3.6558,3.6616,3.6679,3.6721,3.6768,3.6813,3.6851,3.6906,3.6976,3.6994,3.7062,3.7117,3.7206,3.7241,3.7294,3.7289,3.7306,3.7311,3.7315,3.7317,3.722,3.7306,3.7306,3.7306,3.7306,3.7306,0,3.659,3.6629,3.6685,3.6757,3.6806,3.6813,3.687,3.691,3.6971,3.7021,3.7074,3.7149,3.7211,3.7259,3.7322,3.7356,3.7363,3.7371,3.737,3.7378,3.7317,3.7301,3.7365,3.7365,3.7365,3.7365,3.7365,3.7365,3.6635,3.6708,3.6733,3.6826,3.6864,3.6932,3.6964,3.7008,3.7049,3.7132,3.7184,3.7215,3.7265,3.7332,3.7389,3.7401,3.7425,3.7432,3.7446,3.7388,3.7382,3.7376,3.7361,3.7437,3.7437,3.7503,3.7503,3.7504]}]]